{"data":{"norad_id":48127,"intl_designator":"2021-027AM","name":"STARLINK-2468","alt_names":[],"object_type":"PAYLOAD","status":"ACTIVE","operator":null,"country":"US","launch_date":"2021-04-07","launch_site_code":"AFETR","launch_vehicle":null,"mission":null,"orbit_class":"UNKNOWN","rcs_meters":null,"size_class":null,"mass_kg":null,"dimensions":null,"purposes":["comms"],"wikipedia_slug":null,"has_3d_model":false,"image_url":null,"decayed_at":null,"tle_current":{"epoch":"2026-05-25T01:57:31.624992Z","epoch_age_seconds":78587,"freshness":"FRESH","line1":"1 48127U 21027AM  26145.08161603  .00001141  00000+0  48540-4 0  9998","line2":"2 48127  53.1592 170.0951 0001339  79.7977 280.3175 15.31701261284214","mean_motion":15.31701261,"eccentricity":0.0001339,"inclination_deg":53.1592,"raan_deg":170.0951,"arg_perigee_deg":79.7977,"mean_anomaly_deg":280.3175,"bstar":4.854e-5,"rev_number":28421,"period_min":94.013110563079,"perigee_km":469.81917212651,"apogee_km":471.65330037918,"semimajor_km":6848.8732362528,"source":"CELESTRAK","updated_at":"2026-05-25T13:38:16.647335Z"}}}